Location: Unspecified
(34.4950°S, 58.5160°W)
Time: 00:59:12
(UTC+00:00)

Lacrosse 5 rocket - Pass Details

Date: 19 April 2026
Orbit: 390 x 472 km, 57.0° (Epoch: 12 May)

Event Time Altitude Azimuth Distance (km) Brightness Sun altitude
Exits shadow 08:57:07 47° 251° (WSW) 634 1.2 -17.8°
Maximum altitude 08:57:31 49° 228° (SW) 613 1.2 -17.8°
Drops below altitude 10° 09:01:09 10° 151° (SSE) 1,658 4.1 -17.0°
Sets 09:03:23 0° 145° (SE) 2,551 5.2 -16.5°
